Location: Arran
(51.9410°N, 101.7372°W)
Time: 21:35:42
(UTC+00:00)

SWISSCUBE - Visible Passes

Search period start: 27 May 2024 00:00
Search period end: 06 June 2024 00:00
Orbit: 690 x 702 km, 98.5° (Epoch: 27 May)

Date Brightness Start Highest point End Pass type
(mag) Time Alt. Az. Time Alt. Az. Time Alt. Az.
27 May ? 04:47:54 10° NNE 04:52:37 60° ESE 04:56:17 16° S visible
27 May ? 06:26:08 10° N 06:29:52 23° WNW 06:33:34 10° WSW visible
28 May ? 03:51:54 10° NE 03:55:26 20° E 03:58:53 10° SE visible
28 May ? 05:28:45 10° N 05:33:26 63° WNW 05:37:39 13° SSW visible
28 May ? 07:08:14 10° NNW 07:10:10 12° NW 07:12:04 10° WNW visible
29 May ? 04:32:03 10° NNE 04:36:35 43° E 04:40:15 15° SSE visible
29 May ? 06:09:56 10° N 06:14:03 30° WNW 06:18:10 10° WSW visible
30 May ? 03:36:33 10° NE 03:39:17 15° E 03:41:59 10° ESE visible
30 May ? 05:12:45 10° NNE 05:17:31 85° WNW 05:21:36 14° SSW visible
30 May ? 06:51:36 10° NNW 06:54:27 16° NW 06:57:17 10° W visible
31 May ? 04:16:16 10° NNE 04:20:32 32° E 04:24:11 13° SSE visible
31 May ? 05:53:47 10° N 05:58:12 40° WNW 06:02:37 10° SW visible
01 Jun ? 04:56:47 10° NNE 05:01:32 71° ESE 05:05:33 14° S visible
01 Jun ? 06:35:12 10° N 06:38:41 21° WNW 06:42:09 10° WSW visible
02 Jun ? 04:00:36 10° NE 04:04:25 24° E 04:08:08 10° SE visible
02 Jun ? 05:37:41 10° N 05:42:19 54° WNW 05:46:53 10° SW visible
02 Jun ? 07:17:43 10° NNW 07:18:55 11° NW 07:20:06 10° WNW visible
03 Jun ? 04:40:52 10° NNE 04:45:31 51° E 04:49:27 14° S visible
03 Jun ? 06:18:55 10° N 06:22:52 27° WNW 06:26:48 10° WSW visible
04 Jun ? 03:45:04 10° NE 03:48:15 18° E 03:51:26 10° SE visible
04 Jun ? 05:21:37 10° NNE 05:26:22 74° WNW 05:30:48 12° SSW visible
04 Jun ? 07:00:44 10° NNW 07:03:11 14° NW 07:05:39 10° W visible
05 Jun ? 04:25:01 10° NNE 04:29:27 37° E 04:33:22 13° SSE visible
05 Jun ? 06:02:42 10° N 06:07:00 35° WNW 06:11:17 10° SW visible
